AEE287 LGKR-LGAV

Flight info

Callsign AEE287
Flight time 0h 53m
Altitude 29000
Route RIPID N732 ORTOS L612 ARA B34 NEMES
Aircraft A320/M-SDE3FGHIRWY/LB1

Departure

Time 2026-05-06 16:58
Airport Corfu Ioannis Kapodistrias International Airport (LGKR)

Arrival

Time 2026-05-06 17:51
Airport Athens Eleftherios Venizelos International Airport (LGAV)
Time Latitude Longitude Altitude Speed Heading
2026-05-06 16:40 39.60761 19.91331 19 ft 0 kts 80°
2026-05-06 16:50 39.60760 19.91325 18 ft 1 kts 80°
2026-05-06 16:51 39.60758 19.91314 18 ft 1 kts 80°
2026-05-06 16:51 39.60757 19.91300 20 ft 2 kts 79°
2026-05-06 16:51 39.60754 19.91284 21 ft 2 kts 79°
2026-05-06 16:51 39.60752 19.91268 20 ft 2 kts 79°
2026-05-06 16:52 39.60750 19.91250 18 ft 2 kts 79°
2026-05-06 16:52 39.60747 19.91230 18 ft 2 kts 65°
2026-05-06 16:52 39.60737 19.91214 22 ft 2 kts 20°
2026-05-06 16:52 39.60722 19.91211 20 ft 0 kts 348°
2026-05-06 16:55 39.60731 19.91209 18 ft 4 kts 348°
2026-05-06 16:55 39.60775 19.91197 18 ft 10 kts 348°
2026-05-06 16:55 39.60865 19.91174 19 ft 17 kts 348°
2026-05-06 16:55 39.60968 19.91147 19 ft 17 kts 348°
2026-05-06 16:56 39.61073 19.91118 19 ft 15 kts 347°
2026-05-06 16:56 39.61184 19.91087 19 ft 10 kts 342°
2026-05-06 16:56 39.61228 19.91003 21 ft 13 kts 282°
2026-05-06 16:56 39.61171 19.90961 21 ft 5 kts 168°
2026-05-06 16:57 39.61159 19.90964 21 ft 0 kts 169°
2026-05-06 16:57 39.61109 19.90977 23 ft 30 kts 168°
2026-05-06 16:57 39.60629 19.91100 18 ft 105 kts 168°
2026-05-06 16:57 39.59739 19.91336 179 ft 143 kts 168°
2026-05-06 16:58 39.58765 19.91655 825 ft 147 kts 160°
2026-05-06 16:58 39.57959 19.92534 1352 ft 167 kts 129°
2026-05-06 16:58 39.57148 19.93731 1794 ft 189 kts 140°
2026-05-06 16:58 39.56088 19.94902 2338 ft 209 kts 142°
2026-05-06 16:59 39.54954 19.96089 3180 ft 215 kts 142°
2026-05-06 16:59 39.53763 19.97330 4100 ft 219 kts 142°
2026-05-06 16:59 39.52586 19.98565 5011 ft 222 kts 142°
2026-05-06 16:59 39.51358 19.99858 5911 ft 227 kts 143°
2026-05-06 17:00 39.50141 20.01144 6763 ft 231 kts 143°
2026-05-06 17:00 39.48880 20.02480 7604 ft 237 kts 143°
2026-05-06 17:00 39.47578 20.03864 8457 ft 242 kts 143°
2026-05-06 17:00 39.46272 20.05256 9305 ft 247 kts 143°
2026-05-06 17:01 39.44922 20.06646 10141 ft 252 kts 150°
2026-05-06 17:01 39.43317 20.07650 10799 ft 261 kts 166°
2026-05-06 17:01 39.41507 20.08266 11186 ft 284 kts 169°
2026-05-06 17:01 39.39514 20.08910 11555 ft 307 kts 169°
2026-05-06 17:02 39.37465 20.09569 11853 ft 330 kts 168°
2026-05-06 17:02 39.35159 20.10318 12147 ft 351 kts 168°
2026-05-06 17:02 39.32754 20.11109 12768 ft 361 kts 168°
2026-05-06 17:02 39.30311 20.11919 13508 ft 366 kts 168°
2026-05-06 17:03 39.27825 20.12739 14232 ft 371 kts 168°
2026-05-06 17:03 39.25309 20.13567 14903 ft 375 kts 168°
2026-05-06 17:03 39.22769 20.14403 15559 ft 379 kts 168°
2026-05-06 17:03 39.20202 20.15247 16196 ft 383 kts 168°
2026-05-06 17:04 39.17601 20.16097 16824 ft 388 kts 168°
2026-05-06 17:04 39.14975 20.16955 17479 ft 392 kts 168°
2026-05-06 17:04 39.12315 20.17822 18139 ft 396 kts 168°
2026-05-06 17:04 39.09627 20.18700 18727 ft 401 kts 168°
2026-05-06 17:05 39.06907 20.19589 19301 ft 405 kts 168°
2026-05-06 17:05 39.04162 20.20489 19899 ft 409 kts 168°
2026-05-06 17:05 39.01405 20.21402 20505 ft 412 kts 166°
2026-05-06 17:05 38.98703 20.22716 21077 ft 419 kts 155°
2026-05-06 17:06 38.96198 20.24668 21625 ft 424 kts 144°
2026-05-06 17:06 38.93981 20.27204 22165 ft 430 kts 134°
2026-05-06 17:06 38.92030 20.30128 22694 ft 433 kts 131°
2026-05-06 17:06 38.90076 20.33090 23227 ft 437 kts 131°
2026-05-06 17:07 38.88101 20.36072 23736 ft 440 kts 131°
2026-05-06 17:07 38.86108 20.39070 24163 ft 443 kts 131°
2026-05-06 17:07 38.84096 20.42085 24624 ft 446 kts 131°
2026-05-06 17:07 38.82071 20.45113 25056 ft 449 kts 131°
2026-05-06 17:08 38.80062 20.48118 25480 ft 452 kts 131°
2026-05-06 17:08 38.77989 20.51226 25907 ft 454 kts 131°
2026-05-06 17:08 38.75956 20.54279 26322 ft 457 kts 131°
2026-05-06 17:08 38.73888 20.57385 26743 ft 460 kts 131°
2026-05-06 17:09 38.71800 20.60511 27183 ft 463 kts 131°
2026-05-06 17:09 38.69697 20.63648 27621 ft 466 kts 132°
2026-05-06 17:09 38.67574 20.66805 28035 ft 469 kts 132°
2026-05-06 17:09 38.65434 20.69984 28464 ft 472 kts 132°
2026-05-06 17:10 38.63339 20.73094 28859 ft 475 kts 132°
2026-05-06 17:10 38.61178 20.76302 29073 ft 477 kts 132°
2026-05-06 17:10 38.59016 20.79513 29103 ft 474 kts 132°
2026-05-06 17:11 38.54738 20.85866 29097 ft 470 kts 131°
2026-05-06 17:11 38.50478 20.92183 29094 ft 469 kts 131°
2026-05-06 17:12 38.46221 20.98490 29096 ft 469 kts 131°
2026-05-06 17:12 38.41960 21.04782 29094 ft 469 kts 132°
2026-05-06 17:13 38.37689 21.11069 29091 ft 469 kts 132°
2026-05-06 17:13 38.33410 21.17338 29085 ft 469 kts 132°
2026-05-06 17:14 38.29184 21.23536 29075 ft 469 kts 132°
2026-05-06 17:14 38.24902 21.29814 29071 ft 470 kts 132°
2026-05-06 17:15 38.20607 21.36076 29073 ft 470 kts 132°
2026-05-06 17:15 38.16401 21.42424 29074 ft 470 kts 126°
2026-05-06 17:16 38.13260 21.49738 29081 ft 486 kts 116°
2026-05-06 17:16 38.11737 21.53695 29085 ft 497 kts 116°
2026-05-06 17:16 38.10208 21.57662 29104 ft 504 kts 116°
2026-05-06 17:17 38.07125 21.65622 29100 ft 507 kts 116°
2026-05-06 17:17 38.03995 21.73638 29011 ft 502 kts 116°
2026-05-06 17:17 38.02471 21.77541 28655 ft 490 kts 116°
2026-05-06 17:18 38.01453 21.80150 28402 ft 486 kts 116°
2026-05-06 17:18 37.99957 21.83986 28025 ft 483 kts 116°
2026-05-06 17:18 37.98474 21.87786 27672 ft 480 kts 116°
2026-05-06 17:18 37.96993 21.91573 27300 ft 477 kts 116°
2026-05-06 17:19 37.95523 21.95323 26943 ft 475 kts 116°
2026-05-06 17:19 37.94074 21.99011 26605 ft 472 kts 116°
2026-05-06 17:19 37.92590 22.02780 26244 ft 470 kts 116°
2026-05-06 17:19 37.91156 22.06412 25902 ft 467 kts 116°
2026-05-06 17:20 37.89687 22.10133 25571 ft 465 kts 116°
2026-05-06 17:20 37.88244 22.13790 25223 ft 462 kts 116°
2026-05-06 17:20 37.86833 22.17368 24896 ft 460 kts 116°
2026-05-06 17:20 37.85404 22.20989 24579 ft 458 kts 116°
2026-05-06 17:21 37.83982 22.24582 24239 ft 456 kts 116°
2026-05-06 17:21 37.82572 22.28134 23918 ft 454 kts 116°
2026-05-06 17:21 37.81151 22.31709 23600 ft 451 kts 116°
2026-05-06 17:21 37.79742 22.35250 23203 ft 449 kts 116°
2026-05-06 17:22 37.78342 22.38773 22829 ft 447 kts 116°
2026-05-06 17:22 37.76951 22.42267 22481 ft 444 kts 116°
2026-05-06 17:22 37.75566 22.45743 22101 ft 442 kts 116°
2026-05-06 17:22 37.74187 22.49204 21738 ft 441 kts 116°
2026-05-06 17:23 37.72812 22.52649 21391 ft 439 kts 116°
2026-05-06 17:23 37.71439 22.56081 21029 ft 437 kts 116°
2026-05-06 17:23 37.70079 22.59511 20672 ft 435 kts 115°
2026-05-06 17:23 37.68796 22.62941 20309 ft 432 kts 114°
2026-05-06 17:24 37.67567 22.66393 19944 ft 429 kts 113°
2026-05-06 17:24 37.66403 22.69752 19594 ft 427 kts 112°
2026-05-06 17:24 37.65220 22.73183 19234 ft 425 kts 112°
2026-05-06 17:24 37.64034 22.76590 18879 ft 423 kts 113°
2026-05-06 17:25 37.62845 22.79969 18545 ft 421 kts 113°
2026-05-06 17:25 37.61644 22.83340 18169 ft 420 kts 113°
2026-05-06 17:25 37.60440 22.86682 17768 ft 417 kts 114°
2026-05-06 17:25 37.59239 22.89999 17380 ft 415 kts 114°
2026-05-06 17:26 37.58045 22.93285 17003 ft 412 kts 114°
2026-05-06 17:26 37.56858 22.96560 16613 ft 409 kts 114°
2026-05-06 17:26 37.55686 22.99812 16239 ft 407 kts 113°
2026-05-06 17:26 37.54517 23.03058 15866 ft 404 kts 113°
2026-05-06 17:27 37.53362 23.06267 15493 ft 402 kts 113°
2026-05-06 17:27 37.52207 23.09462 15131 ft 399 kts 114°
2026-05-06 17:27 37.51059 23.12626 14774 ft 396 kts 114°
2026-05-06 17:27 37.49918 23.15772 14419 ft 394 kts 114°
2026-05-06 17:28 37.48940 23.18971 14069 ft 390 kts 105°
2026-05-06 17:28 37.48354 23.22289 13700 ft 386 kts 97°
2026-05-06 17:28 37.48163 23.25645 13304 ft 382 kts 88°
2026-05-06 17:28 37.48341 23.28959 12919 ft 379 kts 82°
2026-05-06 17:29 37.48606 23.32256 12535 ft 376 kts 83°
2026-05-06 17:29 37.48859 23.35522 12159 ft 374 kts 83°
2026-05-06 17:29 37.49104 23.38770 11783 ft 372 kts 83°
2026-05-06 17:29 37.49345 23.42003 11413 ft 370 kts 83°
2026-05-06 17:30 37.49586 23.45215 11048 ft 366 kts 83°
2026-05-06 17:30 37.49821 23.48347 10692 ft 363 kts 83°
2026-05-06 17:30 37.50059 23.51505 10328 ft 361 kts 83°
2026-05-06 17:30 37.50296 23.54632 10033 ft 357 kts 83°
2026-05-06 17:31 37.50527 23.57690 9799 ft 343 kts 83°
2026-05-06 17:31 37.50745 23.60600 9667 ft 328 kts 83°
2026-05-06 17:31 37.50948 23.63343 9537 ft 315 kts 83°
2026-05-06 17:31 37.51148 23.66037 9412 ft 304 kts 83°
2026-05-06 17:32 37.51343 23.68638 9280 ft 294 kts 83°
2026-05-06 17:32 37.51532 23.71192 9150 ft 292 kts 83°
2026-05-06 17:32 37.51720 23.73739 9023 ft 291 kts 83°
2026-05-06 17:32 37.51906 23.76275 8895 ft 290 kts 84°
2026-05-06 17:33 37.52089 23.78805 8771 ft 290 kts 84°
2026-05-06 17:33 37.52271 23.81327 8643 ft 289 kts 84°
2026-05-06 17:33 37.52455 23.83852 8516 ft 290 kts 84°
2026-05-06 17:33 37.52637 23.86372 8390 ft 289 kts 84°
2026-05-06 17:34 37.52818 23.88883 8268 ft 288 kts 84°
2026-05-06 17:34 37.52999 23.91381 8142 ft 283 kts 84°
2026-05-06 17:34 37.53177 23.93809 8016 ft 274 kts 84°
2026-05-06 17:34 37.53344 23.96099 7900 ft 265 kts 84°
2026-05-06 17:35 37.53507 23.98373 7770 ft 257 kts 84°
2026-05-06 17:35 37.53667 24.00627 7651 ft 266 kts 84°
2026-05-06 17:35 37.53836 24.02976 7529 ft 273 kts 84°
2026-05-06 17:36 37.54174 24.07743 7283 ft 274 kts 84°
2026-05-06 17:36 37.54343 24.10133 7161 ft 274 kts 84°
2026-05-06 17:36 37.54510 24.12518 7040 ft 273 kts 84°
2026-05-06 17:36 37.54675 24.14902 6923 ft 273 kts 84°
2026-05-06 17:37 37.54840 24.17284 6799 ft 272 kts 84°
2026-05-06 17:37 37.55005 24.19660 6680 ft 272 kts 84°
2026-05-06 17:37 37.55345 24.21997 6560 ft 271 kts 71°
2026-05-06 17:37 37.56108 24.24152 6429 ft 269 kts 57°
2026-05-06 17:38 37.57242 24.26017 6312 ft 268 kts 44°
2026-05-06 17:38 37.58674 24.27489 6181 ft 266 kts 31°
2026-05-06 17:38 37.60329 24.28502 6057 ft 264 kts 17°
2026-05-06 17:38 37.62108 24.29005 5933 ft 262 kts
2026-05-06 17:39 37.63920 24.28993 5808 ft 260 kts 353°
2026-05-06 17:39 37.65723 24.28791 5681 ft 260 kts 354°
2026-05-06 17:39 37.67527 24.28596 5557 ft 260 kts 354°
2026-05-06 17:39 37.69324 24.28407 5436 ft 260 kts 354°
2026-05-06 17:40 37.71126 24.28218 5314 ft 259 kts 354°
2026-05-06 17:40 37.72920 24.28025 5190 ft 259 kts 354°
2026-05-06 17:40 37.74710 24.27832 5068 ft 258 kts 354°
2026-05-06 17:40 37.76499 24.27640 4945 ft 258 kts 354°
2026-05-06 17:41 37.78289 24.27444 4823 ft 258 kts 354°
2026-05-06 17:41 37.80075 24.27249 4694 ft 257 kts 354°
2026-05-06 17:41 37.81860 24.27055 4568 ft 257 kts 354°
2026-05-06 17:41 37.83641 24.26864 4442 ft 257 kts 354°
2026-05-06 17:42 37.85423 24.26674 4316 ft 257 kts 354°
2026-05-06 17:42 37.87203 24.26480 4191 ft 257 kts 354°
2026-05-06 17:42 37.88982 24.26288 4068 ft 257 kts 354°
2026-05-06 17:42 37.90757 24.26099 3944 ft 257 kts 354°
2026-05-06 17:43 37.92541 24.25907 3819 ft 257 kts 353°
2026-05-06 17:43 37.94299 24.25716 3699 ft 257 kts 353°
2026-05-06 17:43 37.96112 24.25519 3571 ft 258 kts 353°
2026-05-06 17:43 37.97898 24.25325 3446 ft 257 kts 354°
2026-05-06 17:44 37.99642 24.25045 3322 ft 248 kts 345°
2026-05-06 17:44 38.01228 24.24295 3193 ft 239 kts 334°
2026-05-06 17:44 38.02734 24.23459 3086 ft 235 kts 335°
2026-05-06 17:44 38.04227 24.22634 3000 ft 233 kts 335°
2026-05-06 17:45 38.05664 24.21744 3008 ft 232 kts 322°
2026-05-06 17:45 38.06629 24.20204 3006 ft 214 kts 290°
2026-05-06 17:45 38.07097 24.18490 2998 ft 197 kts 281°
2026-05-06 17:45 38.07187 24.16845 3005 ft 189 kts 267°
2026-05-06 17:46 38.07142 24.15188 3003 ft 187 kts 265°
2026-05-06 17:46 38.07082 24.13517 3003 ft 187 kts 265°
2026-05-06 17:46 38.07015 24.11884 3005 ft 188 kts 265°
2026-05-06 17:46 38.06944 24.10228 3005 ft 188 kts 265°
2026-05-06 17:47 38.06877 24.08581 3003 ft 187 kts 266°
2026-05-06 17:47 38.06744 24.06942 3010 ft 187 kts 253°
2026-05-06 17:47 38.06190 24.05470 2992 ft 185 kts 232°
2026-05-06 17:47 38.05250 24.04370 2862 ft 184 kts 217°
2026-05-06 17:48 38.04236 24.03409 2612 ft 178 kts 216°
2026-05-06 17:48 38.03272 24.02501 2526 ft 171 kts 217°
2026-05-06 17:48 38.02350 24.01572 2335 ft 168 kts 216°
2026-05-06 17:48 38.01414 24.00763 2112 ft 159 kts 214°
2026-05-06 17:49 38.00543 23.99944 1881 ft 151 kts 220°
2026-05-06 17:49 37.99774 23.99091 1603 ft 145 kts 216°
2026-05-06 17:49 37.98960 23.98382 1349 ft 137 kts 212°
2026-05-06 17:49 37.98223 23.97649 1165 ft 134 kts 219°
2026-05-06 17:50 37.97486 23.96947 1010 ft 131 kts 215°
2026-05-06 17:50 37.96747 23.96262 848 ft 132 kts 221°
2026-05-06 17:50 37.96013 23.95566 687 ft 133 kts 216°
2026-05-06 17:50 37.95284 23.94870 480 ft 131 kts 218°
2026-05-06 17:51 37.94551 23.94174 317 ft 132 kts 219°
2026-05-06 17:51 37.93899 23.93552 297 ft 97 kts 216°
2026-05-06 17:51 37.93525 23.93198 294 ft 25 kts 216°
2026-05-06 17:51 37.93381 23.93144 293 ft 22 kts 189°
2026-05-06 17:52 37.93231 23.93121 296 ft 22 kts 187°
2026-05-06 17:52 37.93115 23.93086 300 ft 15 kts 212°
2026-05-06 17:52 37.93017 23.92995 300 ft 19 kts 217°
2026-05-06 17:52 37.92916 23.92898 299 ft 19 kts 217°
2026-05-06 17:53 37.92800 23.92788 300 ft 23 kts 217°
2026-05-06 17:53 37.92671 23.92665 302 ft 19 kts 217°
2026-05-06 17:53 37.92582 23.92612 303 ft 14 kts 169°
2026-05-06 17:53 37.92558 23.92706 303 ft 13 kts 34°
2026-05-06 17:54 37.92642 23.92783 302 ft 17 kts 36°
2026-05-06 17:54 37.92752 23.92886 302 ft 22 kts 37°
2026-05-06 17:54 37.92881 23.93008 300 ft 25 kts 37°
2026-05-06 17:54 37.93004 23.93124 300 ft 22 kts 36°
2026-05-06 17:55 37.93133 23.93247 301 ft 25 kts 37°
2026-05-06 17:55 37.93272 23.93379 302 ft 23 kts 37°
2026-05-06 17:55 37.93370 23.93485 302 ft 18 kts 66°
2026-05-06 17:55 37.93316 23.93631 304 ft 20 kts 128°
2026-05-06 17:56 37.93226 23.93783 301 ft 20 kts 127°
2026-05-06 17:56 37.93133 23.93937 301 ft 24 kts 127°
2026-05-06 17:56 37.93117 23.94075 302 ft 16 kts 44°
2026-05-06 17:56 37.93218 23.94170 304 ft 20 kts 35°
2026-05-06 17:57 37.93278 23.94288 302 ft 17 kts 111°
2026-05-06 17:57 37.93203 23.94422 302 ft 20 kts 127°
2026-05-06 17:57 37.93161 23.94527 301 ft 12 kts 73°
2026-05-06 17:57 37.93229 23.94605 302 ft 15 kts 38°
2026-05-06 17:58 37.93320 23.94693 301 ft 18 kts 38°
2026-05-06 17:58 37.93423 23.94791 301 ft 20 kts 37°
2026-05-06 17:58 37.93512 23.94875 301 ft 12 kts 37°
2026-05-06 17:58 37.93561 23.94902 301 ft 7 kts 348°
2026-05-06 17:59 37.93597 23.94852 301 ft 6 kts 307°
2026-05-06 17:59 37.93607 23.94836 301 ft 0 kts 306°